Wind_Speed
39 36 37 36 35 34 29 26 25 24 23 21 17 15 14 12 9 7 5 4 4 3 3 3 4 5 6 7 7 7 7 7 8 10 11 12 13 13 13 13 13 13 13 13 14 15 16 17 17 18 19 19 20 22 23 24 25 26 28 28 29 29 28
42 39 38 38 38 37 33 29 28 26 26 24 21 18 17 15 13 10 8 6 4 3 3 3 3 3 4 5 6 6 5 5 6 7 9 10 12 13 12 12 12 12 11 11 11 12 13 15 16 16 17 18 19 20 21 22 24 24 25 26 27 27 27
44 42 40 41 42 40 36 32 31 29 28 27 24 22 20 19 17 15 12 10 7 5 4 3 3 3 3 3 4 4 4 4 4 5 6 8 10 12 12 11 11 11 10 10 10 10 10 11 13 14 15 16 17 18 19 20 21 22 23 24 25 25 25
45 44 42 42 42 41 37 34 33 31 31 30 28 25 24 22 21 18 17 15 12 10 8 5 3 3 3 3 3 3 4 3 3 3 4 6 8 10 11 12 11 11 10 10 9 9 9 9 10 12 13 15 16 17 18 18 19 19 20 21 22 23 24
46 45 45 44 43 41 38 36 35 34 34 33 31 29 28 26 24 22 21 19 17 15 13 11 8 5 4 3 3 3 3 3 1 1 2 4 5 7 8 10 10 11 11 11 10 9 9 9 9 9 11 13 14 15 16 17 17 17 17 19 19 19 20
50 49 47 47 47 44 40 39 37 36 36 35 34 33 31 30 27 25 24 23 20 18 16 15 13 10 8 6 5 4 3 3 1 1 3 4 3 3 5 7 8 9 10 11 11 10 9 9 8 9 10 11 13 14 14 15 15 15 16 17 17 17 17
52 51 50 51 51 47 43 40 38 37 37 37 36 35 34 33 30 28 27 25 24 22 19 18 17 15 13 11 9 6 4 3 3 3 4 6 5 4 3 3 5 6 8 10 11 11 10 10 9 9 9 10 11 12 13 14 14 15 15 15 16 16 15
54 52 53 55 53 49 46 43 41 39 39 38 37 38 37 35 33 31 29 27 26 25 23 21 20 19 16 15 13 10 7 6 6 6 6 7 4 3 4 2 2 2 3 7 9 9 9 10 10 9 9 10 10 10 11 13 14 14 14 15 15 15 15
55 54 55 56 55 53 50 47 43 40 40 40 39 38 38 37 35 34 32 30 28 26 25 24 23 21 19 18 18 15 11 10 9 9 9 9 5 2 4 4 2 1 1 3 6 7 8 8 9 9 10 10 10 10 10 11 12 14 14 14 15 16 16
56 56 55 55 55 55 54 50 44 40 40 42 41 38 38 39 38 37 35 33 31 29 28 27 26 25 23 21 21 19 17 14 13 13 13 13 11 8 7 6 5 6 5 1 3 6 8 8 8 8 9 9 10 10 10 10 11 12 14 14 15 16 17
57 58 57 55 55 55 55 52 47 45 44 45 44 42 42 43 41 39 38 37 35 33 32 31 29 28 26 25 24 23 22 20 18 17 17 16 15 13 11 9 9 10 9 6 2 4 7 9 9 9 9 9 9 9 9 9 10 11 12 13 14 14 15
60 60 59 57 56 55 55 55 53 51 50 50 51 49 46 45 43 42 42 40 39 37 35 35 33 31 30 29 27 26 25 24 22 21 21 20 18 16 15 14 12 11 11 10 7 5 7 8 10 10 10 9 9 9 9 8 8 9 10 11 12 12 13
65 63 61 58 56 53 54 58 57 55 56 56 54 50 48 45 44 44 44 42 41 40 39 37 36 34 34 32 30 29 28 26 25 24 23 23 22 20 18 17 15 13 12 11 11 10 9 9 10 11 11 10 9 9 10 10 8 7 7 8 9 10 10
68 66 64 60 58 53 51 57 60 59 59 58 53 50 49 48 47 45 44 44 43 43 41 40 39 38 37 35 33 31 30 29 27 27 26 26 25 23 21 20 19 16 15 14 14 13 12 11 11 11 11 11 10 10 10 11 10 8 6 6 6 7 8
69 68 66 63 61 56 51 56 62 62 60 57 54 52 51 50 49 46 44 46 46 45 44 43 43 42 40 38 36 34 32 31 30 28 29 29 28 26 24 23 21 19 19 18 17 14 14 14 13 13 12 12 11 11 11 11 12 10 7 5 4 5 5
70 69 68 66 65 61 54 55 62 63 61 59 57 55 54 54 52 47 46 49 49 49 49 49 47 46 44 42 40 37 35 35 33 31 30 30 30 30 28 27 24 22 22 21 20 18 16 15 15 15 14 14 13 12 12 12 12 12 10 7 4 2 3
72 70 68 67 69 66 59 57 61 64 63 62 62 59 56 57 57 52 51 52 52 52 54 54 52 49 48 45 42 40 39 38 36 34 33 32 32 32 31 29 28 27 25 23 22 22 21 19 18 18 17 17 16 15 14 14 14 13 12 9 6 4 1
73 71 68 69 72 71 65 59 59 63 65 64 63 61 57 57 59 59 57 56 54 53 55 56 54 51 50 48 45 44 44 43 40 38 36 35 34 33 33 31 31 30 27 25 23 22 23 22 22 21 20 20 20 18 17 17 15 14 13 11 8 6 3
71 73 73 73 73 71 69 65 62 62 66 67 65 62 58 57 58 60 61 59 56 55 56 56 54 52 51 49 45 45 46 46 44 42 40 38 37 36 35 35 34 33 30 28 26 24 24 24 24 24 23 24 24 23 22 19 17 17 16 13 11 9 6
78 81 82 79 76 73 70 69 67 64 64 67 67 65 61 58 57 56 58 58 58 57 57 56 55 55 54 52 48 47 47 47 46 45 43 42 41 40 39 38 38 37 35 33 30 28 26 26 27 27 27 28 28 28 27 22 20 20 19 16 14 13 11
85 88 89 86 83 81 75 71 70 67 65 65 67 67 65 62 59 57 56 56 56 57 57 58 58 58 57 56 55 53 51 49 48 48 47 45 44 43 41 41 41 40 40 38 35 31 29 29 29 29 30 32 32 32 31 26 24 24 23 20 18 17 17
80 81 89 92 90 88 86 80 75 71 68 67 66 66 66 65 63 60 58 56 55 56 57 59 60 59 57 56 56 57 55 51 49 50 51 50 49 47 43 42 42 42 42 40 37 33 31 31 31 31 32 33 33 34 34 30 28 28 26 24 22 21 22
76 69 77 88 92 93 93 91 85 77 72 70 68 66 65 65 65 64 62 60 58 57 57 58 58 58 57 57 58 59 57 53 51 52 52 52 52 51 47 44 42 42 42 42 40 36 34 35 34 32 33 34 34 35 35 32 30 30 29 28 27 26 26
84 72 70 79 88 93 96 96 94 88 80 75 72 70 66 65 65 65 65 64 63 60 59 57 56 56 58 59 60 60 57 56 56 55 53 53 53 53 51 49 46 44 43 43 42 40 39 39 38 35 35 37 38 39 38 36 34 33 32 31 31 30 30
88 79 74 79 86 91 96 98 98 96 91 84 79 75 71 68 66 66 67 68 67 64 63 63 61 60 62 62 61 61 61 61 60 57 54 53 53 52 52 52 51 49 46 43 42 42 42 43 44 44 42 41 41 43 44 42 40 39 38 36 35 34 34
90 83 80 85 91 93 95 97 98 99 99 95 88 81 76 73 70 68 68 70 70 67 66 67 67 67 65 63 63 66 67 67 64 61 58 56 53 51 51 52 51 51 50 47 46 47 48 48 49 51 50 47 44 45 46 44 42 42 41 40 39 38 38
97 93 90 92 95 96 97 98 99 100 100 100 96 88 81 79 77 72 71 72 73 72 69 67 69 69 66 64 65 70 73 72 68 65 64 63 60 57 55 54 54 54 54 54 54 55 56 56 55 55 54 54 51 50 49 47 43 42 43 43 43 43 42
100 100 100 101 100 99 99 100 101 102 101 102 102 97 89 85 83 79 76 76 76 76 73 69 69 70 69 67 67 70 74 75 70 68 70 71 69 67 65 63 63 61 59 59 59 59 59 61 61 60 60 60 59 57 56 53 49 47 46 46 47 47 46
100 101 102 104 105 102 100 100 102 104 105 105 106 105 100 94 90 86 84 82 81 81 79 75 73 73 72 71 70 71 74 74 71 72 75 76 74 72 72 71 69 66 64 63 62 61 60 62 63 63 63 64 64 63 61 59 58 56 55 54 53 53 53
100 101 102 104 106 105 103 102 102 104 107 109 109 109 107 103 98 94 91 89 87 86 85 82 81 79 78 76 74 73 74 73 72 74 78 80 79 77 76 75 72 68 67 67 67 65 64 65 65 65 64 64 65 66 66 66 67 66 64 63 61 60 60
100 101 102 104 105 105 105 104 103 105 108 110 111 111 111 110 107 102 99 97 94 92 90 88 87 87 87 85 82 80 77 75 73 75 78 81 83 82 80 79 76 72 71 71 72 71 69 68 67 67 66 65 64 65 65 66 66 67 67 66 66 65 64
99 100 101 103 105 106 105 105 105 105 108 110 111 111 113 114 114 111 109 107 104 100 97 95 93 92 92 92 91 90 88 84 80 79 79 80 82 83 83 82 81 79 78 77 78 78 77 75 73 71 70 68 66 65 64 63 64 65 65 65 66 66 66
101 100 100 101 103 106 107 107 107 106 106 109 111 112 113 114 116 117 116 115 114 111 108 105 102 100 98 98 97 97 96 95 92 90 87 85 83 84 85 86 86 85 84 83 82 82 82 81 79 77 76 74 72 70 67 66 66 66 65 64 65 66 67
104 103 102 101 101 103 105 107 109 108 107 108 110 113 114 115 116 118 119 120 119 119 117 115 113 110 109 107 106 104 103 102 100 99 97 94 91 88 88 88 90 90 89 88 87 86 85 84 81 79 77 77 76 75 74 72 71 69 67 66 66 67 68
105 106 106 105 104 103 103 104 106 108 109 109 110 111 113 114 116 117 119 121 122 122 121 121 120 118 117 116 115 113 111 110 108 107 105 103 101 98 95 94 94 95 94 94 94 93 92 90 87 85 83 82 81 81 80 80 79 76 73 72 71 71 72
106 106 107 108 108 107 106 105 105 105 106 107 110 112 114 115 115 116 118 120 121 122 123 123 122 122 121 120 119 118 116 115 115 114 113 111 109 107 105 103 102 101 101 100 100 100 99 97 95 92 91 90 89 88 87 87 86 85 84 83 81 79 78
109 108 109 109 110 110 109 108 107 107 106 105 106 109 113 115 116 117 118 119 120 121 122 123 123 123 123 122 122 120 119 118 118 117 117 116 115 114 113 112 110 110 109 108 107 107 106 105 102 100 98 97 96 95 94 93 92 91 91 91 91 89 87
112 112 111 111 112 113 113 111 109 109 109 109 108 108 110 112 114 116 118 119 119 120 121 122 122 123 123 123 123 123 122 121 120 120 119 119 119 118 118 117 116 115 115 115 114 114 113 113 111 109 108 106 105 103 102 100 99 97 97 96 97 97 96
Wind_Direction
229 231 229 224 224 228 225 222 223 221 219 219 218 217 215 207 199 187 170 139 120 136 154 140 108 91 100 113 117 110 105 107 109 108 105 100 94 92 90 89 88 85 78 70 64 61 61 61 62 62 60 59 58 57 58 58 59 60 60 61 62 63 65
228 231 230 225 224 227 226 223 223 222 220 220 219 219 221 219 215 207 198 188 171 164 165 156 152 141 128 131 132 127 118 113 113 113 112 108 101 94 92 91 90 91 88 80 71 63 60 59 59 60 60 59 58 57 57 57 57 59 60 60 61 61 62
224 228 229 226 225 226 225 224 223 222 221 221 221 220 223 225 224 221 215 211 211 210 200 170 165 175 171 161 152 146 137 124 113 110 112 112 107 97 93 91 87 87 88 86 80 70 60 57 55 54 54 56 56 56 56 55 55 57 59 60 60 60 60
221 225 227 223 223 225 224 225 224 222 221 220 221 223 225 226 226 227 226 222 221 223 224 217 199 203 207 197 197 189 170 145 120 117 117 114 113 104 92 86 81 79 79 78 77 73 63 56 53 49 48 50 51 53 56 55 53 55 57 58 59 58 57
218 223 225 223 225 227 225 225 225 223 222 221 221 223 227 227 226 227 229 229 226 225 230 231 227 230 236 235 241 236 227 233 263 143 155 135 124 118 99 86 77 73 71 68 66 67 63 55 48 44 43 45 46 47 51 52 52 54 56 57 57 56 54
217 220 224 228 230 229 226 226 225 224 223 223 224 224 227 230 229 228 229 230 230 229 231 234 235 240 247 253 260 270 275 264 261 153 178 182 173 150 120 97 82 72 67 62 57 57 60 54 45 40 36 38 40 40 42 44 45 47 50 53 55 56 54
218 219 223 228 230 227 226 227 226 226 226 225 227 227 228 230 231 232 231 231 233 233 233 237 240 242 246 253 258 267 278 246 198 174 177 186 206 225 196 120 87 75 66 60 52 46 48 49 44 38 31 28 29 30 32 34 36 38 41 43 48 53 53
217 220 223 227 229 227 226 227 226 227 228 227 228 229 229 231 233 235 234 234 235 235 235 238 242 244 244 248 253 254 258 252 231 210 196 191 195 243 246 204 107 74 71 68 56 41 38 40 38 35 30 25 23 21 22 25 26 29 33 36 39 43 46
213 217 221 224 226 226 225 225 225 226 229 229 227 228 230 232 234 236 236 236 236 236 237 238 241 244 244 246 250 254 257 260 256 241 225 217 214 251 258 228 195 278 271 74 52 31 26 28 28 28 26 23 20 19 17 17 17 20 24 30 34 37 38
210 211 215 219 221 222 222 222 222 223 228 231 228 227 232 233 235 236 236 237 237 236 237 238 240 243 244 246 249 254 257 258 258 254 245 239 235 240 246 239 244 268 260 230 33 8 360 4 7 10 15 16 14 15 15 14 15 17 21 24 30 34 36
206 206 209 214 217 219 219 219 219 218 222 229 228 226 230 233 236 238 238 238 238 237 237 237 239 242 244 246 247 250 253 253 254 254 251 250 246 240 239 241 253 263 256 243 275 336 335 336 341 345 351 358 360 2 6 9 12 17 22 25 28 33 36
205 205 207 210 213 215 216 216 218 217 218 225 227 225 227 231 235 238 238 238 238 238 238 238 239 242 243 245 246 247 249 251 252 253 252 250 250 245 238 237 247 257 251 241 245 274 301 309 314 320 326 333 338 341 346 354 4 11 18 24 28 32 37
205 207 208 209 210 212 213 215 218 219 219 224 227 226 226 228 231 234 235 236 238 238 239 239 240 243 244 245 246 247 248 249 251 253 251 247 247 248 243 240 244 248 245 244 253 265 279 286 289 297 304 310 317 322 327 332 343 359 9 18 25 28 35
206 208 209 210 210 211 213 214 217 221 222 224 228 228 228 228 230 234 235 236 237 237 239 239 240 242 244 245 246 246 248 249 250 252 251 246 243 245 245 244 246 248 249 252 260 268 279 283 281 282 285 291 299 304 310 315 320 333 350 2 20 28 31
206 208 210 211 211 212 214 214 217 221 223 224 225 226 228 229 230 234 237 237 237 236 237 238 239 240 242 244 246 246 247 249 250 251 251 248 243 242 243 244 245 248 252 255 258 265 273 276 276 276 274 274 282 289 294 297 299 306 317 333 3 31 36
206 208 211 212 213 213 213 214 216 219 221 223 223 222 224 227 228 229 232 234 235 236 237 237 238 240 242 244 246 247 247 249 250 250 250 249 246 243 243 244 246 249 253 257 258 258 260 263 265 267 266 264 267 276 282 281 282 287 292 304 322 360 45
207 209 211 215 215 213 212 213 214 216 219 220 221 221 221 223 225 225 227 231 234 235 237 239 240 241 244 246 248 248 248 248 249 249 248 248 248 246 246 247 249 251 254 258 260 260 259 261 261 261 261 259 257 262 270 270 267 271 276 283 292 293 360
209 209 213 219 220 215 212 212 212 215 217 219 220 220 219 221 223 225 228 232 234 236 239 242 243 243 245 247 248 249 248 247 246 247 246 246 246 247 247 247 248 249 253 259 263 265 263 262 261 260 260 258 254 252 257 262 260 258 261 269 277 274 256
212 212 216 222 224 218 214 213 211 212 216 219 220 218 217 221 224 227 230 233 235 237 240 244 245 244 246 247 246 247 248 247 245 245 245 245 244 244 245 245 246 248 252 258 261 263 264 266 264 261 259 257 254 250 249 254 256 253 251 253 260 262 247
221 222 222 224 224 220 217 215 213 213 214 217 219 218 217 220 223 227 231 234 235 238 241 244 246 246 247 247 246 246 247 247 247 246 245 245 244 244 245 244 246 249 252 255 256 257 263 267 266 263 260 257 254 251 248 248 249 250 250 246 249 253 249
226 228 226 225 224 223 222 220 216 215 215 215 217 218 219 220 222 225 228 231 233 236 240 243 245 248 249 249 249 249 247 248 251 250 247 246 245 245 244 244 245 249 251 253 252 253 259 263 262 262 262 259 256 253 250 247 244 245 247 244 244 246 248
227 230 229 227 225 224 226 226 222 218 216 215 216 217 219 221 222 224 225 228 230 232 234 237 240 243 247 249 249 248 246 247 250 250 248 246 243 243 242 241 242 246 249 250 250 250 255 258 259 261 261 259 257 254 251 249 245 244 243 242 241 242 246
222 226 228 228 227 225 225 227 226 223 220 217 216 217 218 220 222 223 224 226 227 228 231 234 236 238 241 244 246 247 247 247 246 246 246 245 243 241 240 237 239 242 246 248 249 250 252 254 257 258 255 252 252 251 251 250 249 246 242 240 240 240 243
222 223 225 226 227 226 224 225 227 227 225 222 219 218 218 218 219 221 223 225 226 226 228 231 234 235 236 238 241 244 245 245 243 242 243 244 242 241 239 237 237 238 242 247 250 250 250 249 250 251 250 249 249 249 251 253 254 251 246 243 243 242 243
223 224 225 226 227 226 225 224 226 228 229 227 224 222 219 216 217 219 221 223 225 225 226 227 228 229 232 235 239 240 241 242 241 239 239 239 238 238 237 236 235 235 236 241 245 246 245 244 243 246 248 250 250 250 252 255 256 254 251 248 247 245 243
222 223 225 226 226 226 225 224 225 226 228 229 229 226 222 219 217 217 218 221 223 222 222 223 223 225 227 230 234 236 238 239 238 235 233 234 234 234 233 232 234 236 237 238 240 243 244 243 242 243 244 245 247 248 249 250 252 253 252 250 248 246 245
223 223 225 225 225 225 224 224 223 225 226 228 230 230 227 222 219 216 216 218 220 219 218 219 222 224 224 223 226 230 234 236 236 233 233 233 233 233 232 232 236 240 241 241 242 244 245 245 244 243 243 244 245 246 247 247 248 250 250 249 249 248 247
224 224 226 227 226 225 224 224 224 224 225 226 228 230 229 225 222 219 217 215 216 217 217 217 219 222 223 222 223 226 230 233 234 235 236 236 235 235 236 236 240 242 242 242 243 244 246 247 247 245 246 247 248 248 247 246 247 248 248 248 249 250 251
227 226 227 228 228 227 226 225 225 225 225 225 227 228 229 228 227 224 221 217 216 216 217 217 218 220 222 224 225 226 228 230 232 234 237 238 237 237 238 239 239 239 238 239 240 242 246 249 250 249 249 250 251 251 250 249 250 252 252 251 251 253 256
228 228 228 229 230 230 228 228 228 227 227 227 227 227 228 229 230 228 224 221 219 219 218 219 219 219 222 225 226 227 228 229 231 233 237 238 238 238 239 239 238 238 238 238 239 241 244 247 250 251 251 251 252 254 253 252 253 254 255 255 255 256 259
229 229 229 230 231 231 230 230 230 229 229 229 229 229 229 229 230 231 229 226 224 223 221 221 221 221 222 224 227 229 229 229 230 231 234 237 238 239 239 238 238 239 240 241 241 243 244 245 247 248 250 251 252 254 255 256 256 255 254 255 256 257 260
230 230 230 230 231 231 231 231 231 231 230 231 231 231 230 230 230 232 232 232 231 229 227 225 224 224 224 224 226 229 230 231 231 231 232 234 237 238 239 239 239 241 244 244 245 245 245 245 244 245 247 251 253 254 256 258 259 259 258 257 257 258 259
232 232 232 232 232 232 232 232 232 231 231 232 232 232 233 232 231 232 233 234 235 234 233 232 230 230 229 228 229 230 231 232 232 233 234 235 235 237 239 240 241 242 244 245 246 246 246 245 244 244 245 248 251 253 255 257 258 259 258 258 258 259 259
233 233 233 233 233 233 233 233 233 233 232 232 233 233 234 234 233 233 233 234 235 236 237 237 236 236 235 235 235 236 236 236 235 236 237 237 237 237 238 239 241 242 244 246 247 246 245 244 243 244 245 246 248 249 251 253 255 255 254 254 254 255 257
234 234 234 234 234 234 234 234 234 234 234 234 234 234 235 235 235 235 234 234 235 236 237 238 239 240 240 240 241 242 242 242 241 241 241 241 241 241 240 240 241 243 245 246 248 249 248 246 246 246 247 247 248 248 249 250 251 251 251 251 252 253 254
235 235 235 235 236 236 235 235 234 234 234 235 235 236 236 236 236 236 236 236 236 236 237 239 239 241 241 242 243 244 245 245 245 245 245 245 245 245 245 244 244 245 246 248 249 250 250 250 250 249 249 249 249 249 249 250 250 251 251 252 253 253 254
235 236 236 236 236 236 236 236 236 235 235 235 236 236 236 237 237 237 237 237 237 237 238 239 240 241 242 243 243 244 245 245 246 246 247 247 247 248 248 248 248 248 249 249 250 251 252 252 252 252 252 251 251 251 250 251 251 252 253 254 254 254 254
235 235 236 236 237 236 236 236 236 236 236 236 236 236 236 237 238 238 238 238 238 238 238 239 240 241 242 243 243 244 245 245 246 246 247 247 248 248 249 249 249 249 250 250 251 252 253 254 254 254 254 253 253 253 253 253 253 253 253 254 254 254 254
Height
11013 11016 11019 11020 11022 11023 11026 11027 11028 11029 11030 11032 11033 11034 11034 11035 11035 11036 11037 11038 11038 11038 11038 11038 11038 11038 11037 11037 11037 11037 11037 11037 11036 11035 11034 11034 11033 11033 11033 11033 11032 11032 11032 11031 11031 11031 11030 11029 11028 11027 11027 11025 11024 11022 11021 11020 11019 11018 11017 11016 11015 11014 11013
11010 11013 11016 11018 11020 11021 11024 11025 11026 11027 11029 11030 11031 11033 11033 11034 11035 11036 11037 11038 11038 11038 11038 11038 11038 11038 11038 11038 11038 11038 11038 11038 11037 11036 11036 11035 11034 11034 11033 11033 11033 11033 11033 11033 11032 11032 11031 11030 11029 11029 11028 11027 11026 11024 11023 11022 11021 11020 11020 11019 11017 11016 11015
11007 11010 11013 11015 11016 11019 11021 11022 11023 11025 11027 11028 11030 11031 11032 11033 11034 11035 11036 11037 11038 11038 11038 11039 11039 11039 11039 11039 11039 11039 11039 11039 11039 11038 11037 11037 11036 11035 11035 11034 11034 11034 11034 11034 11033 11033 11032 11031 11031 11030 11029 11028 11027 11026 11025 11024 11024 11023 11022 11021 11020 11019 11018
11004 11008 11010 11011 11013 11016 11019 11021 11022 11023 11024 11026 11028 11029 11030 11031 11033 11034 11035 11036 11037 11037 11038 11039 11039 11039 11039 11039 11039 11040 11040 11040 11040 11040 11039 11038 11037 11037 11036 11036 11035 11035 11035 11035 11034 11034 11033 11032 11032 11032 11031 11030 11029 11028 11027 11026 11026 11025 11024 11023 11022 11021 11020
11002 11005 11007 11010 11011 11013 11017 11018 11020 11021 11022 11024 11026 11027 11028 11029 11032 11033 11034 11035 11035 11036 11037 11038 11039 11039 11039 11040 11040 11040 11040 11040 11040 11041 11040 11040 11039 11038 11037 11037 11036 11036 11036 11035 11035 11035 11034 11034 11033 11033 11032 11032 11031 11030 11029 11029 11028 11027 11025 11024 11024 11023 11022
10998 11002 11008 11010 11009 11011 11014 11016 11018 11019 11020 11022 11023 11025 11026 11027 11030 11031 11032 11033 11034 11035 11036 11037 11038 11039 11039 11039 11039 11040 11040 11040 11040 11040 11041 11041 11040 11039 11038 11037 11037 11037 11037 11036 11036 11036 11035 11035 11035 11034 11034 11034 11033 11032 11031 11030 11029 11028 11027 11026 11025 11024 11024
10993 10999 11005 11007 11005 11007 11012 11013 11015 11017 11018 11020 11021 11022 11024 11025 11027 11029 11030 11032 11032 11034 11035 11036 11036 11037 11038 11038 11038 11039 11039 11039 11039 11039 11040 11041 11041 11040 11039 11038 11038 11038 11038 11038 11038 11037 11037 11036 11036 11036 11036 11035 11035 11034 11033 11032 11031 11030 11029 11028 11027 11026 11025
10988 10993 10999 11000 11001 11004 11008 11010 11012 11014 11015 11017 11018 11020 11021 11023 11025 11027 11029 11030 11031 11032 11033 11034 11034 11035 11036 11037 11037 11038 11038 11038 11039 11039 11040 11040 11040 11040 11040 11039 11038 11038 11039 11039 11038 11039 11038 11038 11037 11037 11037 11037 11036 11036 11035 11034 11033 11032 11031 11030 11029 11028 11027
10984 10988 10991 10994 10997 11000 11004 11006 11008 11011 11012 11013 11015 11017 11019 11021 11023 11025 11027 11028 11029 11030 11031 11032 11032 11033 11034 11035 11036 11037 11038 11038 11039 11039 11039 11040 11040 11040 11040 11039 11039 11039 11039 11039 11039 11039 11039 11039 11038 11038 11038 11038 11037 11037 11037 11036 11035 11034 11033 11032 11031 11030 11029
10979 10982 10986 10988 10992 10995 10998 11002 11005 11007 11009 11009 11012 11014 11016 11017 11019 11021 11023 11025 11027 11028 11029 11029 11030 11031 11033 11034 11035 11036 11037 11037 11038 11038 11038 11039 11039 11040 11040 11040 11040 11040 11039 11039 11039 11040 11040 11040 11040 11039 11039 11039 11039 11038 11038 11037 11037 11036 11035 11034 11033 11032 11031
10974 10978 10981 10984 10987 10989 10992 10997 11000 11001 11004 11005 11007 11010 11011 11013 11015 11018 11020 11021 11023 11025 11026 11027 11027 11029 11030 11032 11033 11034 11034 11035 11036 11037 11037 11037 11038 11039 11040 11040 11040 11040 11040 11040 11040 11040 11040 11040 11040 11040 11040 11040 11039 11039 11039 11038 11038 11037 11037 11036 11035 11034 11033
10970 10974 10977 10980 10983 10985 10987 10991 10993 10995 10999 10999 10999 11003 11007 11009 11012 11014 11016 11018 11020 11021 11023 11024 11025 11027 11028 11029 11030 11032 11032 11033 11035 11035 11036 11037 11037 11038 11039 11039 11039 11040 11040 11040 11040 11040 11040 11040 11040 11041 11041 11040 11040 11040 11039 11039 11039 11038 11038 11037 11037 11036 11035
10965 10970 10973 10976 10979 10980 10981 10984 10988 10991 10993 10992 10995 11000 11003 11006 11008 11010 11011 11014 11016 11017 11019 11021 11022 11024 11025 11027 11028 11029 11030 11031 11033 11033 11034 11035 11036 11036 11037 11038 11038 11039 11039 11039 11040 11040 11040 11040 11040 11040 11041 11040 11040 11040 11040 11040 11040 11039 11039 11038 11038 11037 11036
10959 10965 10969 10972 10975 10977 10977 10978 10982 10985 10986 10988 10992 10996 10998 11001 11003 11005 11007 11009 11011 11013 11015 11017 11019 11020 11022 11024 11025 11027 11028 11029 11030 11031 11032 11033 11034 11035 11036 11037 11037 11038 11038 11039 11039 11039 11039 11040 11040 11040 11040 11040 11040 11040 11040 11039 11040 11040 11039 11038 11038 11038 11037
10954 10961 10965 10968 10971 10972 10972 10973 10976 10979 10981 10984 10988 10990 10993 10996 10998 11001 11003 11004 11006 11009 11011 11013 11014 11016 11018 11020 11022 11024 11025 11026 11027 11029 11030 11031 11032 11033 11034 11035 11036 11036 11037 11037 11038 11038 11038 11039 11039 11039 11039 11039 11040 11040 11040 11039 11039 11039 11039 11039 11038 11038 11037
10950 10956 10960 10964 10965 10964 10965 10966 10969 10972 10976 10979 10982 10985 10987 10990 10993 10997 10997 10999 11002 11005 11006 11008 11010 11012 11014 11016 11018 11020 11022 11023 11025 11026 11027 11028 11029 11031 11032 11033 11034 11035 11035 11036 11036 11036 11037 11037 11037 11037 11038 11038 11038 11039 11039 11039 11038 11038 11039 11039 11039 11038 11037
10946 10952 10958 10958 10954 10955 10958 10960 10963 10967 10970 10973 10977 10980 10982 10984 10988 10991 10992 10994 10998 11000 11001 11003 11006 11009 11011 11013 11015 11017 11018 11020 11022 11023 11025 11026 11027 11029 11030 11031 11032 11033 11033 11034 11034 11034 11035 11035 11035 11035 11036 11036 11037 11037 11038 11038 11038 11038 11038 11038 11039 11038 11037
10944 10952 10954 10944 10940 10947 10954 10956 10959 10961 10964 10968 10972 10975 10977 10979 10982 10986 10988 10991 10994 10996 10997 10999 11002 11005 11007 11009 11011 11012 11013 11015 11017 11019 11021 11023 11024 11026 11028 11029 11029 11030 11031 11032 11032 11032 11032 11033 11033 11033 11033 11033 11034 11034 11035 11036 11036 11037 11037 11037 11038 11038 11037
10945 10946 10938 10927 10931 10945 10951 10951 10954 10956 10958 10964 10966 10969 10972 10974 10977 10981 10984 10987 10991 10991 10993 10995 10998 11001 11003 11005 11007 11008 11008 11009 11011 11014 11016 11018 11020 11022 11024 11026 11026 11028 11029 11029 11029 11029 11029 11030 11030 11030 11030 11030 11030 11031 11032 11033 11035 11035 11036 11036 11037 11037 11036
10937 10928 10922 10922 10930 10940 10945 10947 10950 10951 10953 10958 10960 10963 10966 10969 10972 10976 10979 10983 10986 10987 10989 10992 10993 10996 10998 11000 11002 11003 11004 11004 11006 11010 11012 11014 11016 11018 11020 11022 11023 11025 11026 11026 11026 11026 11027 11027 11026 11026 11026 11026 11026 11027 11028 11031 11033 11033 11034 11035 11035 11036 11035
10918 10911 10915 10921 10925 10933 10938 10941 10945 10947 10949 10952 10954 10957 10961 10963 10967 10971 10974 10977 10980 10982 10985 10985 10986 10989 10992 10995 10997 10998 11000 11002 11004 11006 11008 11010 11012 11014 11017 11019 11020 11022 11022 11021 11022 11023 11023 11023 11023 11023 11022 11021 11022 11022 11024 11028 11029 11029 11031 11032 11033 11033 11033
10905 10901 10906 10913 10918 10927 10932 10934 10937 10941 10943 10945 10948 10951 10954 10957 10961 10965 10968 10971 10973 10975 10976 10976 10978 10982 10986 10989 10991 10991 10994 10999 11001 11001 11001 11003 11006 11008 11011 11013 11016 11018 11017 11016 11017 11019 11020 11019 11019 11019 11018 11017 11017 11017 11020 11024 11026 11026 11028 11029 11030 11030 11031
10897 10892 10896 10904 10910 10917 10921 10925 10930 10933 10935 10938 10942 10944 10947 10951 10954 10958 10962 10963 10964 10966 10967 10968 10973 10977 10981 10983 10982 10983 10988 10993 10994 10994 10995 10997 10999 11001 11004 11008 11011 11012 11012 11011 11013 11016 11016 11015 11015 11015 11014 11013 11013 11012 11015 11020 11022 11022 11024 11025 11026 11027 11027
10888 10887 10892 10897 10901 10905 10910 10915 10919 10922 10926 10930 10934 10936 10940 10943 10946 10950 10953 10955 10957 10960 10963 10965 10969 10972 10973 10972 10973 10977 10982 10984 10984 10986 10988 10990 10992 10994 10998 11002 11005 11006 11007 11007 11009 11011 11011 11010 11010 11010 11009 11010 11009 11008 11010 11015 11018 11018 11019 11021 11022 11023 11024
10879 10882 10885 10886 10888 10892 10898 10903 10907 10911 10916 10920 10924 10928 10932 10936 10939 10942 10945 10947 10950 10954 10957 10959 10961 10961 10961 10963 10967 10971 10974 10974 10974 10979 10982 10984 10986 10988 10991 10994 10997 10999 11001 11003 11003 11003 11004 11004 11004 11004 11004 11005 11005 11005 11006 11010 11013 11013 11014 11016 11017 11019 11020
10869 10872 10872 10871 10873 10877 10883 10890 10895 10900 10904 10909 10913 10918 10924 10928 10932 10934 10937 10940 10943 10945 10948 10950 10952 10952 10955 10960 10962 10963 10963 10964 10966 10970 10973 10976 10979 10982 10984 10987 10989 10992 10995 10997 10998 10997 10997 10997 10997 10998 10999 11000 11000 11000 11001 11005 11008 11009 11010 11011 11012 11014 11015
10853 10856 10857 10857 10859 10864 10870 10876 10882 10887 10893 10898 10902 10907 10913 10918 10922 10925 10928 10931 10934 10936 10939 10941 10944 10946 10949 10952 10951 10950 10950 10953 10958 10963 10966 10968 10971 10974 10977 10979 10981 10984 10988 10991 10991 10990 10990 10990 10991 10993 10994 10994 10995 10995 10997 10999 11002 11004 11005 11005 11006 11008 11010
10839 10843 10845 10846 10849 10855 10860 10865 10871 10876 10882 10886 10889 10894 10900 10905 10911 10915 10919 10922 10924 10926 10928 10932 10934 10937 10939 10939 10940 10940 10940 10944 10952 10957 10956 10957 10961 10965 10968 10971 10973 10976 10980 10982 10983 10983 10983 10983 10985 10987 10988 10988 10989 10990 10992 10995 10996 10998 11000 11000 11001 11002 11004
10830 10835 10837 10837 10841 10847 10853 10857 10862 10866 10870 10873 10876 10881 10887 10893 10899 10903 10907 10911 10913 10915 10918 10921 10924 10927 10928 10929 10930 10931 10931 10935 10945 10947 10944 10946 10952 10957 10959 10962 10964 10966 10970 10972 10973 10974 10975 10976 10978 10980 10980 10980 10981 10983 10986 10989 10990 10992 10994 10995 10996 10997 10998
10820 10824 10828 10830 10833 10839 10845 10850 10853 10857 10860 10863 10867 10872 10878 10882 10886 10891 10895 10899 10901 10904 10907 10910 10912 10916 10918 10920 10921 10922 10923 10929 10935 10937 10935 10937 10942 10946 10949 10953 10955 10957 10960 10962 10963 10964 10966 10968 10970 10971 10972 10973 10973 10974 10977 10980 10983 10985 10986 10988 10990 10991 10992
10810 10814 10818 10821 10824 10829 10835 10840 10844 10847 10850 10854 10858 10864 10869 10873 10876 10880 10884 10887 10890 10893 10896 10899 10902 10905 10907 10910 10912 10913 10915 10920 10924 10926 10926 10927 10931 10936 10940 10943 10947 10949 10951 10953 10953 10954 10956 10958 10961 10963 10964 10965 10965 10966 10967 10970 10973 10975 10978 10980 10982 10983 10984
10799 10803 10807 10811 10814 10818 10823 10828 10832 10837 10841 10844 10848 10853 10857 10862 10866 10869 10872 10876 10880 10883 10886 10889 10892 10894 10897 10900 10902 10904 10906 10910 10914 10916 10917 10919 10922 10927 10930 10934 10938 10940 10941 10942 10943 10944 10946 10948 10951 10954 10956 10957 10959 10959 10960 10961 10962 10963 10967 10970 10972 10974 10976
10787 10791 10796 10799 10802 10807 10812 10816 10821 10826 10830 10833 10836 10840 10844 10849 10855 10858 10861 10864 10868 10871 10875 10878 10881 10884 10886 10889 10892 10894 10896 10899 10902 10905 10908 10910 10913 10916 10920 10924 10927 10929 10930 10931 10932 10934 10935 10936 10940 10944 10946 10949 10952 10952 10953 10954 10953 10954 10957 10959 10961 10963 10964
10776 10780 10784 10787 10791 10796 10801 10805 10809 10813 10817 10821 10824 10827 10830 10835 10841 10846 10849 10852 10856 10859 10862 10865 10869 10872 10875 10878 10881 10884 10886 10889 10892 10895 10898 10901 10904 10907 10910 10913 10915 10917 10919 10920 10922 10923 10923 10925 10929 10934 10938 10941 10943 10944 10946 10946 10945 10947 10950 10950 10951 10953 10954
10764 10768 10771 10775 10780 10784 10788 10793 10796 10801 10806 10810 10812 10815 10817 10821 10826 10831 10835 10839 10843 10847 10850 10853 10856 10860 10863 10866 10869 10872 10875 10878 10881 10884 10887 10890 10894 10897 10900 10903 10904 10906 10908 10909 10910 10910 10911 10914 10919 10924 10929 10931 10932 10934 10936 10935 10936 10940 10943 10942 10943 10945 10945
10751 10755 10759 10763 10767 10771 10775 10779 10783 10788 10793 10797 10800 10803 10805 10808 10812 10817 10821 10825 10830 10834 10838 10841 10844 10847 10850 10853 10856 10859 10862 10865 10868 10871 10874 10877 10881 10884 10888 10891 10893 10894 10896 10898 10899 10898 10898 10902 10907 10912 10917 10919 10919 10922 10924 10924 10926 10930 10932 10933 10935 10936 10936
10738 10741 10745 10749 10753 10756 10760 10764 10769 10775 10780 10784 10787 10790 10792 10794 10798 10802 10806 10810 10815 10820 10824 10828 10831 10834 10837 10840 10843 10846 10849 10852 10854 10857 10860 10863 10867 10870 10874 10877 10880 10881 10883 10885 10886 10886 10886 10889 10893 10899 10903 10905 10907 10910 10912 10912 10915 10918 10920 10921 10923 10924 10925
10724 10727 10731 10735 10737 10740 10744 10749 10756 10761 10766 10769 10772 10775 10778 10781 10784 10787 10791 10796 10801 10806 10810 10814 10818 10821 10824 10826 10829 10832 10835 10837 10840 10843 10846 10849 10852 10855 10859 10862 10866 10868 10870 10872 10874 10874 10875 10876 10880 10884 10889 10891 10893 10896 10898 10900 10903 10905 10907 10908 10910 10911 10913